Regional Weather Roundup
Issued by NWS Upton, NY

Current Version | Previous Version | Text Only | Print | Product List | Glossary On
Versions: 1 2 3 4 5 6 7 8 9 10 11 12 13 14 15 16 17 18 19 20 21 22 23 24 25 26 27 28 29 30 31 32 33 34 35 36 37 38 39 40 41 42 43 44 45 46 47 48 49 50
000
ASUS41 KOKX 052208
RWROKX

REGIONAL WEATHER ROUNDUP
NATIONAL WEATHER SERVICE NEW YORK NY
600 PM EDT SUN JUL 05 2015

NOTE: "FAIR" INDICATES FEW OR NO CLOUDS BELOW 12,000 FEET WITH NO
SIGNIFICANT WEATHER AND/OR OBSTRUCTIONS TO VISIBILITY.

NYZ071-072-176-178-NJZ106-104-052300-
NEW YORK CITY METRO AREA


CITY           SKY/WX    TMP DP  RH WIND       PRES   REMARKS
CENTRAL PARK   SUNNY     81  62  52 VRB3      30.12S
LAGUARDIA APRT PTSUNNY   81  62  52 S12       30.09R
KENNEDY INTL   MOSUNNY   77  64  64 S15       30.11S
NEWARK/LIBERTY PTSUNNY   84  58  40 W8        30.09S
BRNX BOT. GARD   N/A     79  63  57 NE7       30.10S
TETERBORO      SUNNY     84  58  40 SW8       30.08S
$$

NYZ177-179-078>081-052300-
LONG ISLAND NEW YORK

CITY           SKY/WX    TMP DP  RH WIND       PRES   REMARKS
FARMINGDALE    SUNNY     77  63  61 S12       30.12R
ISLIP          PTSUNNY   77  63  61 SW12      30.10S
SHIRLEY        SUNNY     77  64  64 S10       30.12S
WESTHAMPTON    SUNNY     75  62  64 SW10      30.13S
MONTAUK POINT    N/A     75  63  66 SW5       30.12S
$$

NYZ052-065-067-052300-
HUDSON VALLEY

CITY           SKY/WX    TMP DP  RH WIND       PRES   REMARKS
WHITE PLAINS   MOSUNNY   82  60  47 N3        30.10S
NEWBURGH       MOSUNNY   81  63  54 SW7       30.12R
MONTGOMERY     MOSUNNY   81  62  52 S8        30.10R
POUGHKEEPSIE   MOSUNNY   82  60  47 SW6       30.09R
ALBANY         MOSUNNY   81  58  45 W8        30.08S
$$

NJZ001-105-106-008-010-013-015-019>022-104-052300-
NEW JERSEY

CITY           SKY/WX    TMP DP  RH WIND       PRES   REMARKS
NEWARK/LIBERTY PTSUNNY   84  58  40 W8        30.09S
TETERBORO      SUNNY     84  58  40 SW8       30.08S
CALDWELL       SUNNY     83  59  44 CALM      30.10S
MORRISTOWN     SUNNY     84  64  51 SW7       30.11R
SOMERVILLE     SUNNY     82  63  52 W3        30.09S
SUSSEX         SUNNY     81  62  52 CALM      30.11S
ANDOVER          N/A     79  63  57 SW5       30.12S
TRENTON        MOSUNNY   82  62  50 NW7       30.10S
MILLVILLE      MOSUNNY   79  66  64 VRB5      30.12F
ATLANTIC CITY  SUNNY     78  63  59 S10       30.12F
WRIGHTSTOWN    SUNNY     82  64  56 SW6       30.08S
TOMS RIVER     MOSUNNY   81  64  57 S8        30.11S
BELMAR         SUNNY     79  64  61 S7        30.11S
$$

PAZ047>061-062-071-052300-
EASTERN PENNSYLVANIA

CITY           SKY/WX    TMP DP  RH WIND       PRES   REMARKS
PHILADELPHIA   MOSUNNY   84  63  49 S8        30.11S
ALLENTOWN      SUNNY     81  61  50 W5        30.12R
SCRANTON       SUNNY     81  57  43 NW7       30.13S
$$

CTZ002-004>006-009-010-012-RIZ004-006-007-MAZ004-011-015-052300-
SOUTHERN NEW ENGLAND
 IN CT

CITY           SKY/WX    TMP DP  RH WIND       PRES   REMARKS
BRADLEY INTL   MOSUNNY   83  56  39 NW7       30.07S
HARTFORD       SUNNY     84  53  34 W10       30.07S
DANBURY        SUNNY     81  57  43 CALM      30.12S
WTRBRY/OXFORD  MOSUNNY   79  59  50 W3        30.14S
BRIDGEPORT     SUNNY     82  63  52 SW8       30.09F
MERIDEN        SUNNY     82  58  43 W5        30.08F
NEW HAVEN      MOSUNNY   78  63  59 S6        30.10S
CHESTER        FAIR      77  63  61 SW6       30.11F
GROTON         SUNNY     74  63  68 SW9       30.09S
WILLIMANTIC    SUNNY     81  60  48 W5        30.08F

 IN RI

CITY           SKY/WX    TMP DP  RH WIND       PRES   REMARKS
PROVIDENCE     MOSUNNY   82  59  45 W12       30.07S
BLOCK ISLAND   SUNNY     72  63  73 SW16      30.11S
WESTERLY       SUNNY     76  61  59 SW8       30.10S

 IN MA

CITY           SKY/WX    TMP DP  RH WIND       PRES   REMARKS
BOSTON         MOSUNNY   83  58  42 VRB7G16   30.05S
WORCESTER      MOSUNNY   78  59  51 SW9       30.11S
WESTFIELD      SUNNY     82  55  39 NW7       30.08S
PROVINCETOWN   SUNNY     81  19  10 S12       30.07S
NANTUCKET      SUNNY     69  63  81 SW12      30.10S
$$

ANZ330-335-338-340-345-350-353-355-052300-
COASTAL MARINE OBSERVATIONS


STATION/POSITION TIME  SKY/WX   TEMP    WIND        PRES    VSBY  WAVE
                                AIR SEA DIR/SP/G                  HT/PER
                 (UTC)          (F)     (DEG/KT/KT) (MB)    (MI)  (FT/S)
NY HARB ENTRANCE 2150            72 71  180/ 10/ 12 1019.6          3/ 8
4S FIRE IS       2103               71                N/A           3/ 8
20S FIRE ISLAND  2150            71 71  200/ 10/ 12 1019.8          3/ 8
GREAT SOUTH BAY  NOT AVBL
23SW MTP         2150            70 69  230/ 10/ 12 1019.6          4/ 8
HUDSON CANYON    NOT AVBL
KINGS POINT      2100            77 67  200/  8/ 10 1018.6
CENTRAL LI SOUND NOT AVBL
EASTERN LI SOUND 2100            69 64  250/  4/  6   N/A
ROBBINS REEF     2100            74     160/ 15/ 16 1018.1
$$


>>>>>>>>>>>>>>>>>>>>>>>>>>>> KEY <<<<<<<<<<<<<<<<<<<<<<<<<<<
>                                                          <
>     SKY/WX - SKY CONDITION/PRESENT WEATHER               <
>     TMP    - TEMPERATURE IN FAHRENHEIT                   <
>     DP     - DEWPOINT IN FAHRENHEIT                      <
>     RH     - RELATIVE HUMIDITY IN PERCENT                <
>     WIND   - DIRECTION AND SPEED IN MPH                  <
>     PRES   - MEAN SEA LEVEL PRESSURE IN INCHES OF HG     <
>     WCI    - WIND CHILL INDEX                            <
>     VSB    - VISIBILITY IN MILES                         <
>     HX     - HEAT INDEX                                  <
>     TC     - TEMPERATURE IN CELSIUS                      <
>     VRB    - VARIABLE WIND DIRECTION                     <
>                                                          <
>>>>>>>>>>>>>>>>>>>>>>>>>>>> KEY <<<<<<<<<<<<<<<<<<<<<<<<<<<





USA.gov is the U.S. government's official web portal to all federal, state and local government web resources and services.